CARBONITE 1 (CBNT-1)

Last updated on Sun Apr 12 2026 00:02:35 GMT+0000 (Coordinated Universal Time)

1 40718U 15032D 26101.47398707 .00002016 00000+0 25146-3 0 9995 2 40718 97.6495 282.3497 0015188 148.5934 211.6190 14.83381983579452
UTC large
Height (km)
Speed (km/s)
/
Latitude / Longitude
Inclination (degrees)
Orbital Period (minutes)
Azimuth
Elevation
Range (km)
Doppler Factor

Next 0 passes for location: London (51.5072 / 0.1276)

Sorry there are no passes over London.
CARBONITE 1 (CBNT-1)